sat.trackr.live / text

‹ back to catalog

STARLINK-37486

NORAD 69264 · 2026-117AC

PAYLOAD ACTIVE UNKNOWN

§ Identity

Operator
Country
US
Launch date
2026-05-29
Launch site
AFETR
Launch vehicle
Mass (kg)
RCS (m²)

Purposes: comms

External: N2YO · Heavens-Above · Gunter

§ Orbital elements

Epoch: 2026-09-19T23:16:40.084896Z

Period
93.85 min
Inclination
53.1586°
Eccentricity
0.0000354
Mean motion
15.34401887 rev/d
Perigee alt
462.5 km
Apogee alt
462.9 km
Semi-major
6,840.8 km
B*
5.9912e-4
RAAN
156.3537°
Arg perigee
75.3690°
Mean anomaly
284.7352°
Rev number
1,758

§ Raw data

STARLINK-374861 69264U 26117AC  26262.96990839  .00019921  00000+0  59912-3 0  99952 69264  53.1586 156.3537 0000354  75.3690 284.7352 15.34401887 17582

JSON: /api/v1/satellites/69264 · /tle

For live sub-satellite position, see the globe view (requires WebGL).

§ Visibility from observer

Set your observer location to see the next 7 days of passes ≥ 10°. The values pass through the URL so the page stays shareable.

No JS? Fill the form by hand. The geolocation button needs JavaScript.